Simultaneous Nadir Overpasses (SNOs) Predictions

Prediction of SNOs between AQUA and LANDSAT-8 Satellite Orbit:

Table of predicted SNOs for the next 14.0 days since TLE Epoch: 10/11/2025
Index Date (AQUA) Time (AQUA) Lat,Lon (AQUA) SZA (AQUA ) Date (LANDSAT-8) Time (LANDSAT-8) Lat,Lon (LANDSAT-8) SZA (LANDSAT-8 ) Distance(km) Time Diff (sec)
1 10/13/2025 09:14:02 75.56, 50.88 83.77 10/13/2025 09:12:55 75.52, 48.69 83.60 60.98 67
2 10/13/2025 10:03:26 -75.91,-142.50 95.94 10/13/2025 10:02:15 -75.89,-142.59 95.98 3.26 71
3 10/13/2025 10:52:44 75.91, 25.17 84.08 10/13/2025 10:51:40 75.92, 25.14 84.08 1.43 64
4 10/13/2025 11:42:01 -75.91,-167.16 95.91 10/13/2025 11:41:07 -75.94,-167.15 95.89 3.21 54
5 10/13/2025 12:31:19 75.91, 0.51 84.11 10/13/2025 12:30:33 75.92, 0.43 84.11 2.47 46
6 10/13/2025 13:20:36 -75.92, 168.18 95.88 10/13/2025 13:20:00 -75.95, 168.14 95.86 3.33 36
7 10/13/2025 14:09:54 75.92, -24.14 84.14 10/13/2025 14:09:26 75.93, -24.28 84.14 3.73 28
8 10/13/2025 14:59:12 -75.97, 143.37 95.81 10/13/2025 14:58:53 -75.95, 143.43 95.83 2.84 19
9 10/13/2025 15:48:30 75.97, -48.96 84.21 10/13/2025 15:48:18 75.98, -48.84 84.22 3.33 12
10 10/13/2025 16:37:47 -75.98, 118.71 95.78 10/13/2025 16:37:46 -75.95, 118.72 95.80 2.46 1
11 10/13/2025 17:27:05 75.98, -73.62 84.24 10/13/2025 17:27:11 75.98, -73.55 84.25 2.01 6
12 10/13/2025 18:16:22 -75.98, 94.05 95.75 10/13/2025 18:16:39 -75.96, 94.01 95.77 2.79 17
13 10/13/2025 19:05:40 75.98, -98.27 84.27 10/13/2025 19:06:04 75.99, -98.26 84.28 0.79 24
14 10/13/2025 19:54:57 -75.99, 69.39 95.72 10/13/2025 19:55:31 -76.01, 69.45 95.68 3.17 34
15 10/13/2025 20:44:15 75.99,-122.93 84.30 10/13/2025 20:44:57 75.99,-122.96 84.31 0.95 42
16 10/13/2025 21:33:32 -75.99, 44.74 95.69 10/13/2025 21:34:24 -76.01, 44.74 95.65 2.66 52
17 10/13/2025 22:22:50 75.99,-147.59 84.33 10/13/2025 22:23:50 76.00,-147.67 84.34 2.19 60
18 10/13/2025 23:12:07 -76.00, 20.08 95.66 10/13/2025 23:13:17 -76.02, 20.03 95.62 2.78 70
19 10/14/2025 00:01:30 76.24,-173.04 84.56 10/14/2025 00:02:39 76.19,-171.77 84.59 33.96 69
20 10/14/2025 00:50:55 -76.62, -6.67 95.11 10/14/2025 00:51:58 -76.60, -2.79 94.93 100.00 63



Historial Predications of SNOs between AQUA and LANDSAT-8
